This demonstration page uses our WeatherBlox Daily Observations layout. Learn more.

Left ArrowRight Arrow

39.92423, -83.80882

Hourly Observations for August 1, 2019

Temp ( °F °C ) Dew Point ( °F °C ) Humidity (%) Winds ( mph kmh ) Pressure ( in mb ) Visibility ( mi km ) Precip ( " mm )
12:56 am 00:56 Cloudy 68 20 64 17.8 87 87 N 3 6 30.11 1020 10 16.0934 N/A
1:56 am 01:56 Mostly Cloudy 67 19.4 65 18.3 93 93 NE 3 6 30.11 1020 10 16.0934 N/A
2:56 am 02:56 Clear 66 18.9 65 18.3 96 96 ENE 5 7 30.1 1019 10 16.0934 N/A
3:56 am 03:56 Clear 64 17.8 64 17.8 100 100 ENE 7 11 30.09 1019 10 16.0934 N/A
4:56 am 04:56 Clear with Mist and Fog 64 17.8 64 17.8 100 100 NE 6 9 30.09 1019 6 9.65604 N/A
5:56 am 05:56 Clear with Mist and Fog 63 17.2 63 17.2 100 100 NE 6 9 30.1 1019 5 8.0467 N/A
6:56 am 06:56 Cloudy with Mist and Fog 66 18.9 66 18.9 100 100 NE 7 11 30.12 1020 5 8.0467 N/A
7:56 am 07:56 Cloudy with Mist and Fog 67 19.4 67 19.4 100 100 ENE 8 13 30.12 1020 6 9.65604 N/A
8:56 am 08:56 Mostly Cloudy 71 21.7 68 20 90 90 NNE 9 15 30.13 1020 10 16.0934 N/A
9:56 am 09:56 Partly Cloudy 73 22.8 68 20 84 84 NE 9 15 30.13 1020 10 16.0934 N/A
10:56 am 10:56 Cloudy 76 24.4 67 19.4 74 74 E 7 11 30.14 1021 10 16.0934 N/A
11:56 am 11:56 Cloudy 78 25.6 68 20 71 71 ENE 10 17 30.15 1021 10 16.0934 N/A
12:26 pm 12:26 Cloudy 79 26 68 20 70 70 NE 10 17 30.11 1020 10 16.0934 N/A
12:36 pm 12:36 Cloudy 81 27 70 21 70 70 ENE 7 11 30.11 1019 10 16.0934 N/A
12:43 pm 12:43 Cloudy 79 26 68 20 70 70 NE 3 6 30.12 1020 10 16.0934 N/A
12:54 pm 12:54 Cloudy 79 26 68 20 70 70 ENE 6 9 30.11 1020 10 16.0934 N/A
12:56 pm 12:56 Mostly Cloudy 80 26.7 69 20.6 69 69 VRB 7 11 30.15 1021 10 16.0934 N/A
1:56 pm 13:56 Mostly Cloudy 81 27.2 67 19.4 62 62 ESE 12 19 30.14 1021 10 16.0934 N/A
2:56 pm 14:56 Cloudy 80 26.7 67 19.4 64 64 NNE 10 17 30.12 1020 10 16.0934 N/A
3:56 pm 15:56 Mostly Cloudy 80 26.7 67 19.4 64 64 NE 12 19 30.1 1019 10 16.0934 N/A
4:56 pm 16:56 Cloudy 80 26.7 66 18.9 62 62 ENE 10 17 30.09 1019 10 16.0934 N/A
5:56 pm 17:56 Mostly Cloudy 82 27.8 66 18.9 58 58 NE 13 20 30.08 1019 10 16.0934 N/A
6:56 pm 18:56 Mostly Sunny 79 26.1 65 18.3 62 62 ENE 9 15 30.09 1019 10 16.0934 N/A
7:56 pm 19:56 Mostly Sunny 78 25.6 65 18.3 64 64 NE 8 13 30.08 1019 10 16.0934 N/A
8:56 pm 20:56 Clear 74 23.3 64 17.8 71 71 NE 7 11 30.08 1019 10 16.0934 N/A
9:56 pm 21:56 Clear 69 20.6 64 17.8 84 84 NE 7 11 30.1 1019 10 16.0934 N/A
10:56 pm 22:56 Cloudy 72 22.2 64 17.8 76 76 NE 9 15 30.12 1020 10 16.0934 N/A
11:56 pm 23:56 Mostly Clear 69 20.6 62 16.7 78 78 NE 8 13 30.13 1020 10 16.0934 N/A

Powered by AerisWeather